Weather in Smirnovo

Kazakhstan     54°30′56″N   69°25′01″E
temp.,
°C
wind,
m/s
gust,
m/s
humid.,
%
clouds,
%
prec.,
mm/h
press.,
hPa
HPBL,
m
11 april, sun
sun1100:00−2e249724 0.0 104157
03:00−3ese359712 0.0 104174
06:00−3se35955 0.0 104276
09:00−1se35915 0.0 1042145
12:00+1se34925 0.0 1042216
15:00+3sse34835 0.0 1041241
18:00+3sse24855 0.0 1040140
21:00+1s33855 0.0 104026
12 april, mon
mon1200:00+1s348531 0.0 103845
03:00+1sw3384100 0.0 103837
06:00+1wsw3485100 0.0 103849
09:00+3wsw3778100 0.0 1037171
12:00+7wsw466097 0.0 1036305
15:00+10w465940 0.0 1036489
18:00+9wnw237786 0.0 103544
21:00+6n3392100 0.0 103634
13 april, tue
tue1300:00+5nne3495100 0.0 103752
03:00+5ne3492100 0.0 103844
06:00+4ene3592100 0.0 103975
09:00+5e357519 0.0 1040180
12:00+9e33535 0.0 1040578
15:00+11e22410 0.0 1039883
18:00+11se11370 0.0 1038800
21:00+8se22510 0.0 103810
14 april, wed
wed1400:00+6s33580 0.0 103729
03:00+4ssw33660 0.0 103630
06:00+3ssw33700 0.0 103519
09:00+6ssw34655 0.0 1034142
12:00+11sw44485 0.0 1032511
15:00+14sw44375 0.0 1030789
18:00+14sw34365 0.0 1028760
21:00+10sw22505 0.0 102712
15 april, thu
thu1500:00+8sw22565 0.0 102614
03:00+7sw33595 0.0 102414
06:00+5wsw33645 0.0 102315
09:00+8wsw24585 0.0 1023120
12:00+14wsw34405 0.0 1021487
15:00+16wsw33315 0.0 1019881
18:00+17w33315 0.0 1018915
21:00+12sw22445 0.0 101710